User: anonymous   Login
Location: Klein M�hlingen
(51.9472°N, 11.7453°E)
Time: 00:44:22
(UTC+00:00)
Language:

Cosmos 2181 Rocket - Orbit

View from above orbital plane
View from above orbital plane
View from above satellite
View from above satellite

Ground track
Ground track

The orbit data is extracted from the following two-line orbital elements,

1 21903U 92012B   20188.48578399 +.00000008 +00000-0 -73346-5 0  9998
2 21903 082.9367 077.5761 0041793 222.6605 311.1241 13.74518136420516
Epoch (UTC): 06 July 2020 11:39:31
Eccentricity: 0.0041793
inclination: 82.9367°
perigee height: 952 km
apogee height: 1014 km
right ascension of ascending node: 77.5761°
argument of perigee: 222.6605°
revolutions per day: 13.74518136
mean anomaly at epoch: 311.1241°
orbit number at epoch: 42051

The dashed part of the orbit path shows where the satellite is in the earth's shadow,  

DLR